Theta_e
313 312 312 312 312 312 312 310 310 309 309 309 308 308 308 310 311 310 311 312 313 312 311 312 313 312 313 313 314 312 310 310 310 312 312 312 312 312 312 313 313 313
313 313 313 312 313 312 312 312 310 309 308 309 309 310 310 310 310 312 312 312 312 311 311 311 312 312 312 312 312 310 310 309 310 313 313 312 311 312 312 313 313 313
313 312 311 311 311 311 310 312 312 311 310 309 310 310 309 310 311 312 313 311 311 311 311 311 310 311 311 312 312 310 309 309 309 312 313 312 312 312 312 312 312 312
313 312 311 311 311 309 310 311 311 311 310 309 309 309 309 309 311 310 312 312 310 309 310 309 309 309 310 312 312 310 309 309 310 312 313 313 313 312 311 312 311 311
312 311 310 310 311 311 311 309 308 308 309 310 310 310 310 309 311 310 310 310 309 308 308 308 308 308 309 310 311 308 309 308 310 311 311 311 312 312 312 312 310 309
311 310 310 310 310 310 310 308 308 308 308 309 310 310 309 309 309 309 310 309 308 308 307 307 306 306 307 309 311 309 309 308 309 310 311 311 311 312 312 312 311 309
311 311 311 310 310 310 310 309 309 310 309 309 309 308 308 308 309 309 309 309 307 307 306 305 304 305 305 307 308 310 309 309 309 309 310 311 311 310 311 311 311 310
312 311 311 311 310 310 309 309 309 309 310 309 308 308 309 308 308 310 309 309 307 306 305 303 303 303 304 305 305 309 309 310 309 308 309 310 310 309 310 310 310 310
312 311 310 310 310 310 308 308 309 309 309 308 307 308 309 309 308 308 309 308 307 305 304 302 302 302 303 303 304 305 309 309 309 308 308 309 309 309 309 309 308 309
311 311 310 309 309 309 309 309 309 309 309 308 308 308 307 309 308 308 308 307 306 305 302 301 301 301 301 302 303 305 307 309 309 308 308 309 309 309 309 308 308 307
310 309 309 309 309 309 309 309 309 309 309 307 307 307 307 307 307 308 308 307 306 303 301 300 300 300 300 300 301 304 305 310 309 308 308 308 309 309 310 308 307 306
309 309 308 309 308 308 309 309 309 308 308 307 306 306 307 307 307 307 307 305 305 303 301 300 300 299 299 298 299 302 304 310 309 308 308 307 308 308 309 308 307 307
308 308 309 308 309 308 309 308 308 308 307 306 307 306 305 305 306 307 307 306 304 303 301 299 299 298 297 297 298 300 302 307 309 308 308 308 308 308 308 308 308 307
308 309 308 308 308 308 308 308 308 308 308 307 307 306 305 305 305 306 307 306 304 303 301 299 297 296 295 295 296 298 301 307 309 308 308 307 308 308 308 308 308 307
309 308 308 307 307 307 307 307 308 308 308 307 306 306 306 305 305 306 306 305 304 302 300 299 296 295 295 294 295 296 299 306 308 308 307 306 306 306 307 307 307 307
306 308 306 306 306 306 306 307 307 307 307 306 306 305 305 306 305 305 305 305 303 301 299 298 296 294 295 295 295 296 298 306 308 306 306 305 305 304 304 305 305 305
305 305 305 304 306 306 306 306 306 307 306 306 306 306 305 305 305 304 305 305 303 300 298 297 295 294 293 292 293 295 298 304 307 306 305 304 303 302 302 303 305 305
305 304 303 304 304 304 305 305 306 306 305 305 306 305 305 305 304 304 304 305 304 301 298 295 294 294 291 292 293 293 296 303 308 306 304 302 301 301 301 301 303 304
303 302 302 303 303 304 305 306 305 305 305 305 305 306 305 304 303 304 304 305 303 300 297 294 292 293 291 292 293 293 294 300 308 307 305 302 300 299 299 299 300 301
303 302 302 302 303 304 305 304 304 304 305 306 306 306 304 304 303 303 303 303 303 301 298 295 292 292 291 292 292 292 293 298 307 307 306 303 300 299 298 297 297 298
303 302 302 302 303 303 304 303 304 305 304 305 305 304 304 303 303 302 301 302 302 302 299 295 292 292 291 291 292 292 293 302 308 307 306 304 302 299 298 297 296 297
303 302 303 301 302 303 302 302 303 304 304 305 305 305 304 304 303 303 301 300 301 302 301 295 293 291 291 291 291 292 294 307 307 306 305 304 303 300 298 297 297 296
303 302 302 302 302 301 301 303 303 304 304 306 304 303 303 302 302 302 302 301 299 300 300 297 293 292 291 291 291 291 297 304 305 305 304 303 303 302 300 299 298 297
302 301 301 301 301 301 302 303 304 305 306 307 303 302 301 302 302 302 302 302 300 298 299 298 295 293 291 291 291 291 296 301 301 303 303 303 302 302 301 300 300 301
302 302 302 302 301 302 303 302 303 303 304 305 305 303 302 301 301 300 301 301 301 300 300 298 296 295 292 291 291 291 294 299 299 298 301 301 301 300 300 299 299 300
304 304 304 303 301 303 304 304 304 304 303 302 302 301 300 300 300 299 299 299 301 301 298 297 296 295 295 291 291 291 292 296 297 295 297 299 299 299 298 298 298 298
Wind_Speed
6 6 6 6 6 6 5 7 6 7 7 7 7 7 7 7 6 7 8 8 9 9 10 10 10 10 10 10 9 9 9 10 10 8 11 13 13 15 15 14 8 1
6 6 6 6 5 5 5 6 7 7 7 6 6 6 7 6 7 5 7 9 9 9 9 10 11 12 11 9 9 9 9 10 11 7 11 14 13 14 15 16 14 12
6 6 7 7 6 6 7 6 6 5 5 6 6 6 6 7 7 9 6 9 9 9 10 10 11 11 11 10 9 9 10 12 12 9 10 12 13 13 13 12 13 14
6 6 6 7 7 8 7 6 6 5 5 7 8 7 7 7 6 9 7 9 9 10 10 11 11 10 12 11 10 9 11 10 11 10 11 11 13 13 13 12 12 12
6 6 7 7 7 7 6 8 8 7 7 6 6 6 6 7 5 8 9 9 10 10 10 12 11 11 11 10 9 9 10 11 12 11 11 11 12 13 11 12 13 13
6 7 8 7 7 7 6 8 8 8 8 7 6 6 6 8 6 10 9 10 11 11 12 12 12 11 10 11 9 9 9 10 11 12 12 12 11 11 10 11 13 13
6 6 7 7 7 8 7 7 7 7 7 7 6 6 6 6 9 8 8 9 12 12 12 12 12 11 10 11 11 9 9 10 12 13 12 11 11 13 11 11 11 11
6 6 6 6 7 7 7 7 7 6 7 7 7 6 6 8 8 6 9 12 11 13 12 13 12 12 11 10 11 10 10 8 10 11 12 12 10 12 13 11 12 12
5 6 6 6 6 6 7 7 6 7 7 7 7 6 6 7 8 9 11 12 12 12 12 12 13 11 10 11 11 12 10 9 9 9 10 11 12 12 12 12 12 12
5 5 6 6 6 6 7 7 6 7 7 7 6 5 7 6 8 9 11 11 11 12 12 12 12 12 12 11 11 11 10 10 10 10 10 10 11 12 12 12 12 12
5 5 6 6 6 6 7 7 7 7 7 8 7 8 9 7 6 9 11 11 10 13 13 13 12 12 12 12 12 11 11 9 10 9 9 10 10 10 12 11 11 11
5 5 6 6 6 6 6 7 7 7 7 7 8 8 7 7 7 9 10 11 12 12 12 12 11 11 11 11 11 11 10 8 9 8 9 10 10 10 10 10 10 10
5 5 5 5 5 6 6 6 7 7 9 8 7 8 8 8 8 9 10 11 11 11 12 12 11 11 11 11 11 11 10 8 9 8 8 7 8 9 9 9 10 10
4 4 5 5 5 5 6 6 7 7 7 7 7 8 8 9 9 9 9 10 10 10 11 10 10 10 11 12 11 10 10 8 9 8 8 7 7 8 8 8 9 9
3 4 4 5 5 5 6 6 7 7 7 8 8 8 7 8 9 9 10 11 11 11 11 10 9 9 8 9 10 11 9 8 9 9 9 9 9 9 10 9 9 8
5 4 5 5 5 6 6 6 6 7 7 8 8 8 8 8 8 8 9 11 11 11 10 9 9 7 16 22 14 8 8 6 8 9 9 9 9 9 9 10 9 9
4 5 5 6 5 5 6 7 7 6 7 8 8 8 8 8 7 8 9 9 10 10 10 9 8 11 22 20 20 18 9 6 7 9 10 10 9 9 9 8 8 9
5 5 6 6 5 7 7 7 6 7 7 7 7 8 7 7 8 8 8 8 8 10 10 10 9 18 21 21 19 19 13 7 6 7 10 11 10 10 9 8 8 8
5 6 6 5 6 7 6 6 6 7 7 7 7 7 6 8 9 9 10 9 9 10 10 11 10 19 20 21 20 19 18 10 7 7 9 11 11 10 10 10 9 9
6 6 6 5 5 6 6 6 7 7 6 5 5 6 6 7 8 9 9 9 9 9 9 10 12 18 20 22 20 20 18 11 8 7 8 9 11 12 10 10 10 9
5 5 6 5 5 6 6 6 6 5 6 5 5 5 6 7 7 8 8 8 8 7 8 10 10 21 21 22 21 21 20 9 7 7 7 7 8 11 12 11 11 9
5 5 5 5 5 6 6 6 5 5 5 4 5 5 5 5 6 6 8 9 9 8 7 10 12 21 21 21 22 22 20 7 7 6 8 8 7 9 11 11 11 11
5 5 5 5 5 6 6 5 4 4 4 3 4 5 5 5 5 6 6 8 10 9 8 8 11 17 20 21 21 23 14 8 7 7 7 8 9 7 7 10 11 12
5 5 5 5 5 6 6 4 4 3 2 3 4 4 5 5 5 5 6 6 8 10 9 7 9 15 19 20 22 23 16 9 8 7 8 7 8 8 7 7 11 19
5 5 5 5 6 5 4 4 4 4 4 4 3 4 4 5 5 5 5 5 6 7 13 10 8 11 18 19 21 22 15 8 9 8 7 8 8 7 7 7 8 10
4 5 4 4 5 4 3 3 3 3 4 5 5 5 5 4 4 4 5 5 5 6 7 8 8 8 12 18 18 19 19 11 8 9 8 9 8 8 8 7 8 7
Wind_Direction
13 20 22 17 22 13 18 17 16 14 21 10 15 10 0 17 342 322 342 344 8 356 8 2 9 6 2 359 16 6 349 339 339 6 357 5 1 1 14 25 29 69
15 22 24 23 10 18 22 26 22 18 21 12 11 12 6 345 317 322 5 6 357 10 5 6 13 5 360 1 23 11 349 343 347 22 8 14 9 8 17 24 33 40
22 19 25 25 10 20 20 28 28 20 16 14 19 19 7 331 334 350 10 16 6 7 12 14 15 6 355 5 26 14 357 345 347 18 27 18 13 17 20 25 33 38
19 22 27 23 17 20 24 19 28 19 13 28 19 15 9 332 336 359 346 28 11 13 14 21 17 7 355 2 25 17 1 348 348 5 27 22 20 26 27 29 35 38
18 25 26 27 19 19 30 22 23 24 16 30 27 10 2 334 359 6 358 27 18 12 18 17 20 12 359 357 22 26 6 353 351 5 20 30 25 24 26 30 35 40
30 27 31 27 22 16 28 28 23 22 24 16 28 13 355 341 351 24 356 28 17 20 17 21 19 14 353 355 16 36 16 359 358 3 19 29 30 29 31 35 37 40
27 28 29 31 25 20 27 29 22 24 22 20 26 18 350 343 18 20 8 31 27 19 21 20 16 11 1 354 358 24 23 14 6 6 13 25 31 29 27 34 41 46
36 29 29 33 28 22 27 24 27 28 20 26 23 2 353 7 12 25 12 37 27 25 23 22 18 12 4 354 353 357 29 27 17 8 10 22 27 32 30 26 29 32
39 33 33 31 31 27 28 24 29 29 27 29 19 357 1 21 7 28 28 30 27 24 25 22 17 12 1 357 352 352 13 30 23 15 20 22 28 27 30 28 28 29
36 38 35 33 34 26 30 26 27 38 32 29 14 3 9 16 25 34 38 31 26 27 26 22 17 11 3 357 351 352 348 30 28 23 19 21 32 30 24 26 25 25
40 36 37 35 37 28 31 31 29 41 39 28 15 20 21 16 23 43 43 36 27 30 25 21 17 9 6 355 352 351 342 23 26 26 16 12 31 39 33 27 27 25
42 39 33 35 35 34 31 33 35 40 40 33 18 25 21 10 19 49 49 36 33 31 28 21 14 10 6 356 350 345 342 7 34 29 23 20 18 26 37 34 27 25
45 42 39 32 35 38 37 34 39 43 41 36 27 24 22 13 18 54 55 44 35 33 29 20 12 10 2 355 350 346 341 347 35 29 29 27 25 26 30 34 33 28
48 44 38 36 35 44 46 41 40 44 44 40 36 31 23 18 14 33 59 47 39 36 27 20 14 10 3 354 348 344 341 337 33 26 26 27 25 28 29 32 34 33
67 45 45 39 40 42 47 48 46 44 45 43 38 35 24 23 20 17 50 51 42 36 27 20 14 6 5 354 343 338 341 334 27 27 31 28 25 24 23 24 28 25
55 58 52 48 43 42 48 50 48 47 46 47 42 35 31 25 24 16 36 48 42 36 27 21 14 6 351 350 357 356 335 331 29 32 33 32 27 25 21 23 24 20
67 55 47 49 44 48 51 46 48 50 49 47 45 40 33 27 20 28 33 46 43 39 26 19 16 0 352 355 353 357 356 328 33 38 39 36 30 26 20 12 15 17
67 67 58 44 44 50 49 49 47 49 51 49 46 44 38 30 28 21 30 46 45 44 32 17 13 358 357 357 355 353 356 340 33 45 43 40 34 28 22 10 10 14
75 66 58 53 49 47 48 49 49 49 47 45 50 49 40 39 32 20 21 31 41 46 36 20 11 359 357 0 357 354 353 346 44 45 51 45 39 34 27 18 10 12
70 65 68 61 52 54 49 47 47 47 48 44 47 53 49 44 40 33 27 25 29 45 43 25 17 359 2 3 359 355 351 338 60 40 61 60 47 40 34 25 17 14
75 71 68 60 59 61 57 51 40 46 50 43 46 53 55 49 40 40 34 26 21 36 51 34 16 6 8 5 3 357 348 338 55 53 50 68 63 50 42 33 26 20
95 83 68 65 67 58 57 54 46 35 46 48 47 61 63 59 52 48 43 35 26 26 48 40 21 14 11 11 7 1 345 16 33 50 56 53 67 66 49 39 33 26
88 77 64 69 65 63 55 48 41 41 42 45 65 54 55 60 58 53 49 42 34 29 35 48 29 17 16 17 13 6 355 14 16 36 42 59 48 60 65 49 39 31
106 96 91 70 63 61 56 45 42 30 32 70 61 62 64 61 60 54 49 51 46 36 29 43 36 22 21 20 19 12 0 18 7 20 37 33 55 48 44 47 40 34
84 88 80 70 65 57 54 56 43 30 21 19 52 63 68 72 63 55 50 51 60 53 39 42 39 27 22 22 22 18 10 17 21 2 25 34 31 41 41 34 29 27
86 81 76 82 80 71 62 54 45 56 49 38 31 48 52 50 58 61 59 49 48 66 50 39 41 33 27 21 22 23 16 14 25 19 10 31 27 31 28 25 25 17